RH
66 75 77 80 84 83 82 85 91 98 102 104 103 102 96 86 82 86 95 101 102 102 99 93 82 72 65 55 50 54 56 64 74 74 79 96 107 109 106 102 100 103 103 99 93 88 87 97 104 103 103 100 88 77 74 74 77 87 100 104 103 103 101 100 100 101 103 103 103 102 93 89 96 98
55 66 75 79 83 84 80 78 80 84 90 95 99 104 102 93 85 78 80 89 97 101 102 100 93 81 70 62 54 52 54 57 63 65 67 76 90 95 94 92 91 96 103 104 101 99 94 96 104 105 101 100 98 91 87 89 89 89 92 96 101 102 101 103 102 100 105 107 105 104 99 95 97 99
49 56 68 75 81 86 85 82 82 82 84 86 89 96 102 103 99 90 82 80 85 93 99 101 100 92 78 69 62 56 54 55 55 59 63 66 69 71 73 77 82 92 103 105 104 104 102 101 105 107 104 102 102 100 99 97 91 83 78 77 84 89 92 101 105 103 105 107 106 104 103 103 102 97
45 47 58 71 79 86 89 87 85 86 89 93 92 90 92 98 103 103 98 92 87 86 91 97 102 102 93 82 72 63 59 57 52 50 55 61 62 60 58 58 65 84 101 104 103 103 101 102 104 106 107 106 104 103 104 102 93 84 74 62 65 79 89 95 102 104 104 104 104 104 103 102 100 97
45 42 50 64 76 83 89 90 88 87 87 92 98 98 94 92 95 101 103 103 100 94 92 93 97 101 101 99 92 80 69 63 59 56 55 57 58 59 60 60 65 80 92 95 99 103 101 99 100 103 106 105 99 94 96 97 90 80 68 56 61 79 88 89 94 99 98 95 97 100 103 105 101 99
48 46 50 62 75 80 84 88 90 93 92 90 94 100 103 99 93 94 99 102 103 103 101 98 98 97 98 100 102 99 90 79 72 70 68 65 64 63 65 73 85 95 95 88 89 95 101 103 100 99 102 103 100 93 89 90 90 86 76 69 74 82 81 75 78 86 87 84 80 79 86 96 101 103
56 60 63 69 81 86 86 85 84 86 93 97 98 101 106 109 105 99 99 101 102 104 104 103 102 99 96 94 94 97 100 97 91 88 84 78 74 71 70 78 94 108 109 100 89 83 87 97 103 103 102 100 100 100 97 93 93 93 89 86 85 84 77 67 65 71 76 76 71 66 69 75 81 92
70 80 83 83 90 95 95 92 83 76 80 92 102 106 107 110 110 106 104 105 105 106 107 107 105 102 100 96 91 88 91 95 98 99 98 94 87 81 77 81 92 102 109 110 104 93 84 83 88 96 102 104 102 101 101 99 97 97 97 95 90 86 83 75 67 66 66 67 65 62 64 64 62 68
81 90 93 92 94 96 97 94 83 70 66 74 92 108 111 109 107 105 104 104 104 105 107 110 110 107 106 104 100 95 90 88 90 93 96 99 99 94 87 87 93 98 102 106 107 103 98 92 87 83 84 90 95 98 103 104 101 100 100 99 95 92 90 85 80 77 74 72 69 65 65 65 61 61
80 87 91 88 85 84 83 83 77 68 61 60 71 92 108 113 109 104 102 102 102 102 102 104 108 110 110 109 107 105 101 96 93 91 90 91 94 95 93 93 97 100 101 103 105 103 100 98 98 94 89 84 80 81 88 94 98 100 100 99 100 100 97 93 90 88 85 80 76 72 69 66 62 59
73 83 86 82 78 72 67 67 67 65 61 56 57 69 89 106 112 111 107 104 103 103 101 100 101 104 107 108 109 109 108 105 102 99 96 94 92 90 88 89 93 97 98 97 99 103 104 102 99 99 98 97 93 85 79 77 79 83 86 87 88 85 81 79 78 79 80 79 76 75 71 68 65 60
75 83 82 78 76 71 67 70 67 61 58 57 55 57 66 82 98 105 108 108 106 105 104 103 102 101 101 102 105 107 108 108 106 102 97 95 96 95 92 89 87 89 92 91 89 90 96 103 106 105 103 100 99 99 95 90 84 79 77 78 81 82 79 74 69 64 63 64 68 71 73 73 71 66
78 80 75 74 73 71 75 75 60 48 47 48 51 54 55 63 77 89 98 104 108 109 107 106 105 105 103 101 101 102 104 106 106 105 99 93 90 91 93 94 92 89 90 93 92 86 84 88 92 99 106 107 103 102 100 99 99 95 89 85 85 89 93 92 88 80 70 63 61 62 66 70 74 75
77 72 68 72 76 79 87 81 59 48 46 43 43 46 47 53 69 86 96 99 103 108 109 106 106 106 105 104 104 103 103 103 101 101 99 95 89 85 84 85 88 90 93 95 95 91 88 90 87 84 88 95 102 106 106 103 101 100 100 99 95 94 97 98 99 100 97 90 83 77 74 72 73 74
71 67 67 72 75 77 81 77 63 54 50 46 44 42 41 42 52 69 86 95 101 106 107 104 103 104 104 102 102 103 105 106 103 99 95 92 88 85 82 79 75 75 83 94 100 95 87 88 93 93 89 86 88 93 100 105 106 104 103 104 102 99 98 98 100 102 103 103 101 100 98 94 88 81
61 59 61 66 68 67 64 58 51 42 37 37 39 40 40 39 38 44 57 71 85 97 101 100 98 98 100 101 99 97 96 96 97 98 99 99 97 92 88 86 79 69 66 75 90 97 90 84 87 92 92 93 93 92 93 97 101 104 106 107 106 104 100 101 103 105 104 102 101 100 99 95 90 84
58 57 58 59 61 62 59 54 49 44 36 31 30 31 34 36 37 37 38 43 53 66 78 86 90 92 94 96 97 95 89 84 80 80 85 93 101 104 100 96 91 81 70 66 73 83 85 81 84 87 84 83 87 92 95 97 98 100 102 104 105 103 100 101 103 105 107 107 105 103 98 92 87 83
57 55 56 58 62 64 64 62 61 57 50 43 38 35 32 32 34 35 37 37 37 39 45 53 63 73 79 84 87 88 86 82 78 73 71 73 79 87 93 94 92 87 80 72 72 78 79 73 73 80 83 79 78 79 83 88 93 98 101 102 102 100 96 93 92 93 96 98 98 96 94 90 87 85
57 53 52 57 64 67 67 68 68 65 61 57 54 50 45 40 36 34 35 37 38 37 36 35 37 43 51 59 66 70 72 73 73 71 68 65 63 64 69 75 80 82 82 78 76 82 86 79 70 69 73 77 78 77 76 76 77 81 87 93 97 100 100 97 92 88 85 84 84 83 81 79 78 76
68 67 64 66 71 72 70 69 68 65 62 60 58 56 54 50 46 42 39 36 35 36 36 36 35 33 34 36 40 45 49 52 54 56 57 57 55 55 55 57 59 63 68 71 74 79 86 87 80 72 69 69 71 74 76 76 75 74 73 75 80 85 91 95 95 92 87 83 81 80 79 78 76 73
85 81 76 78 82 82 78 74 72 70 66 62 59 57 56 54 51 49 46 43 39 37 34 33 34 34 34 34 33 33 34 34 36 37 38 39 40 42 45 48 49 50 51 54 57 63 71 77 78 76 72 68 67 67 68 68 70 72 72 72 72 72 74 78 82 84 84 82 81 80 79 79 78 76
87 79 76 80 84 82 79 76 72 69 66 63 61 58 55 53 51 48 47 45 44 42 40 37 34 33 32 33 34 34 33 32 31 30 30 29 30 31 33 36 39 42 43 45 45 47 51 55 60 65 67 66 64 62 61 60 59 61 65 68 71 72 71 70 71 72 73 74 75 76 76 76 76 75
75 74 79 85 84 82 80 76 71 67 63 61 58 55 52 50 49 47 45 43 42 42 42 42 40 37 34 32 31 32 32 33 33 32 31 30 29 29 29 29 31 33 35 37 38 40 41 42 42 46 51 57 59 58 55 53 51 50 51 54 58 63 67 68 68 68 67 66 67 69 71 73 73 73
65 70 75 76 76 76 75 71 67 64 61 59 57 54 53 51 49 47 45 43 43 42 41 41 40 40 38 37 34 32 31 31 31 32 32 32 31 31 30 29 29 29 31 31 31 32 34 35 35 35 37 42 49 53 52 49 47 45 43 42 42 45 49 54 58 61 63 64 65 65 66 68 69 69
57 58 59 60 63 64 63 63 62 61 59 58 56 54 52 50 48 47 47 47 45 43 41 39 38 37 36 37 36 35 33 32 31 31 30 30 30 30 31 31 30 30 30 30 28 27 28 28 29 30 31 33 37 44 47 46 44 42 40 39 38 37 37 39 42 46 50 54 58 61 65 67 67 66
50 50 51 55 59 60 60 61 61 61 61 59 57 54 51 49 48 48 48 47 43 41 38 36 35 33 32 31 31 32 32 31 31 30 30 29 29 29 28 29 29 30 30 30 28 28 27 27 26 25 25 26 28 33 38 41 42 41 40 40 41 41 40 39 38 39 39 40 42 47 54 60 64 65
47 49 52 56 59 60 62 63 62 62 61 59 56 54 52 51 51 49 46 42 38 35 34 33 33 32 30 29 28 27 27 27 27 28 28 27 27 28 28 27 27 28 29 29 28 28 27 27 27 25 24 22 22 24 26 29 32 33 33 34 36 40 44 46 46 45 43 41 40 39 41 45 50 55
48 51 54 58 60 60 61 62 61 60 58 56 54 54 54 52 49 45 41 37 35 34 33 32 31 30 29 28 27 27 26 25 25 25 25 25 25 25 26 26 26 27 27 27 27 26 25 25 25 25 24 23 22 22 22 23 23 24 24 24 24 28 34 41 47 49 50 49 47 43 41 40 39 41
51 54 57 59 61 63 64 63 61 58 56 55 54 53 51 47 42 39 37 35 34 34 33 32 31 30 29 28 27 26 25 25 24 23 23 23 23 23 23 24 24 24 25 25 25 24 24 24 23 23 23 22 22 23 23 23 23 23 23 23 21 21 22 25 32 38 43 46 46 45 43 40 39 37
57 59 62 66 70 73 72 68 63 59 56 54 51 47 43 40 38 37 35 34 34 33 33 32 31 30 29 28 27 26 25 24 23 22 21 21 21 20 21 21 22 22 21 21 22 21 21 21 22 22 22 23 23 24 24 24 25 25 25 24 23 22 21 19 20 23 27 31 34 36 36 34 32 31
66 69 72 76 79 78 74 68 63 59 54 48 43 40 37 36 36 35 34 33 33 32 31 31 30 29 29 28 27 26 25 23 21 19 18 18 17 17 17 17 18 19 19 18 18 18 18 19 19 20 21 22 23 23 23 24 24 25 25 24 23 22 21 20 19 18 19 20 22 23 24 24 23 21
71 72 73 74 74 72 68 64 59 52 46 41 38 36 35 35 34 34 33 32 31 31 30 30 30 29 29 29 28 27 25 23 21 19 17 17 16 16 16 17 17 17 16 15 15 14 15 16 17 17 18 19 20 20 21 21 21 21 22 22 21 21 21 20 20 19 19 19 19 19 19 19 19 19
66 65 65 65 65 63 59 54 47 42 39 37 36 35 34 34 33 33 33 32 31 31 30 30 31 31 31 29 27 26 24 22 20 18 17 17 18 18 18 17 17 16 15 14 13 12 12 13 14 15 15 16 17 17 17 18 18 18 19 19 19 20 20 21 21 20 19 18 19 19 19 19 19 19
58 57 56 55 53 49 45 41 38 37 36 35 34 33 33 33 33 33 32 32 31 31 31 31 31 30 29 27 24 22 21 20 18 17 16 17 17 17 17 16 16 15 15 15 14 13 12 11 12 13 13 14 14 14 14 15 15 14 15 16 16 16 17 16 17 17 16 16 16 16 17 18 18 18
50 48 46 43 40 37 36 36 36 35 34 32 32 32 32 33 33 32 31 31 30 31 31 30 30 28 26 25 23 21 19 17 17 16 16 17 17 16 16 16 15 15 14 14 14 13 13 12 12 12 13 13 13 13 12 13 14 14 14 13 13 13 13 13 13 13 13 13 14 14 14 14 15 15
44 41 38 36 35 34 35 35 34 32 31 31 32 32 32 32 31 30 30 29 30 30 30 30 29 28 26 25 23 20 19 19 20 19 17 17 18 18 17 17 17 16 16 16 15 15 15 15 14 14 14 14 14 13 12 13 14 14 13 13 13 13 13 13 12 13 12 12 12 12 12 12 12 13
38 36 34 34 34 34 34 33 32 31 31 33 34 33 33 31 29 28 28 29 30 31 32 32 31 29 28 26 23 22 22 23 22 21 20 20 20 20 19 19 18 18 17 17 17 16 16 15 15 15 14 13 12 12 12 13 14 14 13 13 13 13 13 13 13 13 13 12 12 12 12 12 12 12
33 33 33 34 34 33 32 31 32 33 34 35 35 33 31 29 28 28 29 30 33 33 33 32 32 30 28 26 25 24 24 24 23 22 22 21 20 19 18 17 17 16 16 15 15 15 14 14 14 13 13 12 11 11 11 11 12 12 12 13 13 13 13 13 13 13 12 12 12 12 12 12 12 13
32 33 33 33 32 32 32 33 34 35 36 35 33 31 30 29 28 29 31 33 34 33 32 32 30 28 26 25 25 24 23 22 22 20 19 18 17 16 16 15 14 14 13 13 12 12 11 11 10 9 9 8 8 8 8 8 9 9 9 9 9 10 10 10 10 10 10 11 11 11 11 12 12 12
32 32 32 32 32 32 33 34 36 36 35 33 31 30 29 29 29 31 33 35 34 32 31 30 28 26 24 23 22 21 20 19 18 17 16 15 15 15 14 13 13 12 11 10 9 9 9 8 7 7 7 7 6 6 6 6 7 7 7 7 7 7 7 7 7 7 7 8 8 9 9 10 11 12
31 31 32 33 33 34 35 36 36 35 33 31 30 30 30 31 32 33 34 34 32 30 28 27 25 23 22 20 19 18 17 16 15 15 14 14 14 13 13 11 10 9 9 8 8 9 9 9 8 7 7 7 7 7 7 7 8 8 8 8 8 7 7 7 7 7 7 6 6 6 7 8 9 10
31 32 33 34 34 35 35 35 34 33 31 30 30 31 32 32 34 36 36 34 31 28 25 23 21 20 18 17 16 16 15 15 14 14 14 13 13 12 12 11 11 10 10 10 10 11 12 11 11 11 11 10 10 10 9 10 10 10 10 9 9 8 9 9 9 8 8 7 7 7 6 7 7 8
32 33 33 34 35 35 35 34 32 31 31 31 32 32 32 33 35 37 36 32 29 26 22 19 18 18 17 16 16 15 15 15 15 15 14 13 13 13 13 14 14 14 13 13 13 13 13 13 13 12 12 13 13 12 12 11 11 11 11 11 10 10 10 10 9 9 9 8 8 8 7 7 8 8
33 34 34 35 36 36 34 32 31 31 32 33 34 34 33 34 36 36 33 29 25 22 19 17 17 17 18 18 18 18 17 17 17 17 18 19 19 19 18 18 18 18 17 15 15 15 14 14 13 13 13 13 13 13 13 12 12 12 12 12 12 12 12 11 11 10 10 10 9 9 9 8 8 9
34 35 36 36 36 35 33 32 33 34 35 36 36 36 35 35 36 34 30 25 22 20 18 18 19 20 21 22 22 22 22 22 23 24 26 27 28 27 25 24 23 23 22 20 18 18 17 15 14 13 13 13 13 13 14 14 13 13 13 13 13 13 13 13 12 11 11 10 10 10 10 10 10 10
Wind_Speed
42 42 40 39 37 36 35 34 33 31 29 29 29 31 32 33 34 36 40 43 45 45 45 45 45 45 44 43 43 44 44 45 46 45 42 42 41 41 41 42 44 47 49 52 53 54 54 53 51 49 52 55 55 54 52 50 49 48 49 51 50 48 44 41 40 39 40 41 41 43 44 42 41 40
44 44 43 42 41 40 38 37 36 35 34 32 31 31 32 33 34 34 36 39 44 46 46 46 46 47 46 45 44 45 46 47 47 47 46 45 45 45 44 43 44 47 49 50 52 54 55 57 56 53 54 56 56 55 54 53 52 50 50 51 53 53 50 48 45 43 43 43 43 43 45 45 45 45
46 46 45 44 44 43 41 40 39 38 37 36 34 33 32 33 34 35 35 36 39 42 46 47 48 48 47 47 46 46 47 48 49 49 49 49 49 49 49 48 47 48 49 50 51 53 55 57 60 59 59 59 59 59 59 58 57 56 55 54 54 55 55 53 51 49 47 46 45 45 46 47 48 48
47 47 48 47 45 44 44 43 41 41 40 39 38 37 36 34 34 35 36 36 37 39 42 45 48 49 49 49 48 48 48 49 50 50 50 51 52 52 52 52 51 50 50 51 51 52 53 55 58 61 62 63 63 63 63 63 62 62 61 60 58 57 57 56 55 54 53 51 49 47 47 48 49 50
48 47 48 49 47 45 44 44 44 43 43 42 41 41 40 39 37 36 36 37 38 39 40 42 44 48 50 51 51 51 51 51 52 51 51 52 53 54 55 56 55 52 51 51 52 52 53 54 56 59 61 62 64 64 64 63 63 62 61 61 61 60 59 58 57 57 57 55 53 52 51 51 52 52
47 46 47 49 50 47 45 44 44 45 45 44 44 43 42 42 41 40 38 38 38 39 40 42 43 45 48 51 53 54 54 54 54 54 54 53 54 55 56 57 57 55 53 52 52 53 54 55 56 58 60 61 63 63 63 62 62 62 61 61 62 62 62 61 60 60 60 58 57 57 56 56 55 56
47 46 45 47 50 50 48 47 47 46 46 46 45 45 44 44 44 43 42 41 40 40 41 42 44 45 46 48 51 54 56 57 58 58 57 57 56 56 58 59 59 58 56 55 54 54 54 56 57 58 60 61 63 64 64 64 63 63 63 63 63 64 65 65 64 63 62 61 60 59 59 59 59 59
48 47 45 45 47 49 50 50 50 49 49 48 47 47 46 45 45 45 45 45 44 44 44 44 44 45 46 48 49 51 54 56 59 60 61 61 61 60 60 61 62 61 60 58 57 56 56 57 57 58 60 61 63 64 65 66 66 65 66 66 65 65 65 65 65 65 64 63 62 60 59 60 60 61
49 49 48 47 46 48 50 51 51 51 51 51 50 49 48 47 47 47 47 47 47 47 47 47 47 47 47 48 49 50 51 53 55 58 60 63 64 64 64 64 63 63 63 62 60 59 59 60 60 60 60 61 62 64 65 67 67 68 68 67 67 67 66 66 66 65 65 64 63 62 61 60 60 61
51 51 51 50 50 50 50 51 52 52 53 53 53 52 51 50 50 49 48 49 49 50 50 50 51 51 51 51 51 51 51 52 54 55 57 59 62 64 65 66 67 66 65 65 64 62 61 62 63 64 64 64 63 63 64 65 67 68 68 69 68 68 68 67 66 66 66 66 65 64 64 63 62 63
52 51 51 51 50 50 49 50 51 53 54 54 55 55 54 54 53 52 51 51 52 52 53 53 53 54 54 54 54 55 55 54 55 55 56 57 59 61 63 65 68 68 68 68 68 66 65 64 64 66 67 67 68 67 67 67 67 67 68 68 69 69 69 68 68 67 68 68 68 67 67 66 65 64
49 48 47 48 48 48 47 47 48 50 51 53 55 57 57 57 57 56 55 54 54 54 55 56 56 57 57 58 58 58 59 59 59 58 58 57 58 59 60 62 65 67 69 70 71 70 69 68 67 67 68 69 71 71 71 71 71 71 70 70 69 69 69 69 69 69 68 68 68 68 68 67 66 65
46 46 46 46 47 47 47 46 45 46 47 49 52 55 57 58 58 59 58 57 57 57 57 58 59 60 60 61 61 62 62 63 63 63 62 61 61 60 60 61 62 63 65 68 71 72 73 73 72 70 69 70 71 73 74 75 75 75 75 74 73 72 72 71 71 71 70 70 69 68 68 67 67 67
48 48 49 48 47 47 46 45 44 44 45 47 49 52 55 56 58 59 60 59 58 59 60 61 62 62 63 64 64 65 66 66 66 66 66 66 66 65 64 63 63 63 63 65 68 70 72 74 76 75 74 73 73 73 75 76 78 78 79 78 78 77 75 74 74 74 73 73 73 72 71 70 69 68
50 50 50 50 50 50 50 49 49 48 49 49 49 50 52 54 57 59 60 60 60 60 62 63 64 65 66 67 67 68 68 69 69 69 69 69 69 69 69 69 68 66 64 65 67 69 69 70 73 76 77 77 77 76 76 77 78 79 80 80 80 80 79 78 77 76 76 76 76 76 75 75 74 73
52 52 52 51 52 53 54 54 54 54 53 52 51 51 52 54 56 58 60 61 62 63 64 65 65 66 68 69 70 71 71 71 72 72 72 72 72 73 73 73 74 72 69 68 69 71 71 69 70 73 75 76 77 78 79 79 80 80 81 81 82 82 81 81 80 80 80 80 79 79 79 78 78 77
55 55 54 54 54 55 56 57 57 57 57 56 54 53 53 54 55 57 59 61 63 65 67 68 68 68 70 71 72 73 74 74 74 74 75 75 75 76 76 76 77 76 74 72 72 74 75 72 70 72 74 74 75 77 79 80 81 82 82 83 84 84 84 83 83 83 83 83 83 83 82 82 81 81
58 58 57 57 57 58 59 60 60 61 60 60 59 58 57 57 57 57 59 61 64 66 67 69 69 71 72 74 74 75 76 76 77 77 77 78 78 78 79 80 80 80 79 77 76 77 79 77 74 74 76 75 75 76 78 79 80 82 83 84 85 85 86 86 86 86 86 86 86 86 85 85 85 84
61 60 60 60 61 62 62 63 63 63 63 64 64 64 64 64 63 62 62 63 65 67 69 70 70 71 73 75 76 77 78 79 80 80 80 80 80 80 81 82 83 83 83 82 80 79 81 81 79 78 79 79 79 78 79 79 80 81 82 83 84 85 86 87 87 88 88 88 88 89 88 88 88 87
63 63 64 64 65 66 67 67 67 66 66 66 67 67 68 69 69 69 69 69 68 69 71 71 72 73 74 75 76 78 80 81 82 82 83 83 84 84 84 84 85 86 86 86 84 83 83 84 83 82 82 83 83 83 83 82 82 82 82 82 83 84 85 86 87 88 88 88 89 89 90 90 90 90
67 67 67 68 69 70 71 70 70 70 70 70 70 71 71 72 73 74 75 76 76 75 75 75 75 75 76 77 78 79 80 82 83 83 84 85 85 85 86 87 87 88 89 89 88 86 86 87 87 86 86 86 87 87 87 86 85 85 84 84 84 85 86 87 87 87 88 88 87 88 88 89 90 90
70 70 71 71 72 73 73 73 73 73 74 74 74 75 76 76 77 77 78 78 79 80 81 81 80 79 78 79 79 81 82 83 83 84 84 85 85 85 85 86 87 88 90 92 92 90 89 89 89 89 90 90 91 91 90 90 89 88 87 87 87 88 88 88 88 89 89 88 88 87 87 88 88 88
72 72 73 73 74 75 75 76 76 76 77 78 78 79 79 80 80 80 80 80 80 81 82 83 84 84 82 81 80 81 82 83 84 85 85 86 86 85 85 86 86 87 89 92 93 91 91 91 92 92 92 92 94 95 94 93 93 92 91 90 90 90 91 91 91 91 91 91 90 89 89 89 89 88
74 74 75 75 76 77 78 78 79 79 80 81 82 82 83 83 82 82 82 82 82 82 82 82 83 84 85 84 83 82 81 82 83 84 85 86 87 87 87 87 87 87 88 91 92 91 90 91 92 93 93 93 94 96 97 97 96 96 95 94 93 93 94 94 94 94 94 94 93 92 92 92 92 92
75 76 77 78 78 79 80 80 81 82 83 84 85 85 85 84 84 83 83 83 83 83 82 82 82 82 83 84 84 84 83 82 82 82 84 85 86 87 87 88 88 88 90 92 93 92 91 91 92 92 92 92 92 94 96 97 98 98 98 98 98 97 97 97 97 97 97 96 96 95 95 95 95 95
77 78 79 80 81 81 82 83 84 85 86 87 87 87 86 85 84 84 84 84 83 82 81 80 80 80 81 81 81 82 82 82 82 82 82 82 83 84 86 87 88 89 91 93 94 93 93 93 93 92 92 91 91 92 93 96 98 99 98 98 98 99 99 99 99 100 100 99 98 97 97 97 97 97
78 80 81 82 83 84 84 86 87 88 88 89 88 87 87 86 86 85 84 83 81 79 78 77 77 78 78 78 78 78 79 79 80 80 80 80 80 81 82 84 85 87 89 91 93 94 94 94 95 95 94 92 92 92 93 94 97 98 99 98 98 98 98 98 99 99 101 101 101 100 99 99 99 99
80 81 83 84 85 86 87 88 89 89 89 88 88 88 87 87 85 84 82 80 78 76 75 74 74 74 75 75 75 75 75 75 76 76 76 77 77 77 78 80 81 82 84 87 90 93 94 94 95 96 96 95 94 94 94 95 96 98 99 99 98 98 98 98 98 98 98 99 100 100 100 100 100 100
82 83 84 86 87 88 89 90 90 89 89 88 88 87 86 85 83 81 78 76 74 73 72 71 71 71 71 71 71 72 72 72 72 72 72 72 73 73 73 74 76 77 79 82 84 87 89 91 92 94 95 95 95 95 96 96 97 99 100 101 100 100 99 99 99 98 98 98 99 99 100 100 101 101
84 85 86 87 88 89 90 90 90 90 89 89 87 85 83 81 79 77 75 72 71 69 68 68 68 68 68 68 68 68 68 69 69 68 68 68 68 68 68 69 70 72 74 75 77 79 80 82 85 86 88 89 90 91 93 94 95 97 99 101 102 102 102 101 100 99 100 100 101 101 102 102 102 102
86 86 87 87 88 89 90 91 91 91 89 87 85 82 80 77 74 72 70 69 67 65 64 64 64 64 64 64 65 65 66 66 66 65 64 64 64 63 63 63 64 66 67 68 69 70 71 72 74 76 78 80 82 84 86 88 90 92 95 97 99 100 101 101 99 99 99 100 101 102 102 102 103 103
86 86 86 86 87 89 90 90 90 89 87 84 82 78 75 73 70 68 66 65 63 62 61 60 60 60 60 60 61 62 63 64 63 63 61 60 59 59 59 59 59 61 61 62 62 63 63 64 65 67 70 72 74 76 79 81 83 85 88 90 91 92 94 95 96 97 97 98 98 99 100 100 101 102
86 85 85 85 86 87 88 88 87 85 82 80 77 73 70 68 66 64 63 62 60 59 57 56 56 56 56 57 59 59 60 60 60 59 58 57 56 56 56 56 56 56 56 57 57 56 55 56 57 58 61 63 65 68 71 74 76 78 79 81 83 84 86 88 90 91 92 92 92 93 94 96 97 98
85 84 83 83 84 84 83 82 80 79 76 73 70 68 65 63 62 60 59 58 56 54 53 52 52 53 54 55 56 56 56 56 55 54 53 52 52 52 52 52 53 52 52 53 53 52 50 50 50 51 53 55 58 61 64 66 68 70 72 74 76 78 79 81 82 84 85 85 85 86 87 88 90 91
82 82 81 80 79 78 76 75 73 71 69 66 64 63 61 59 58 57 55 53 51 50 49 50 50 51 52 52 53 53 52 51 50 49 48 47 47 47 47 47 48 47 47 47 48 47 46 46 45 46 48 50 53 56 57 57 59 64 66 68 69 71 73 74 75 76 78 78 79 79 80 81 82 83
79 78 76 74 72 70 69 68 67 65 62 61 60 59 58 56 55 53 51 48 46 46 46 47 48 48 48 49 49 49 47 46 45 45 44 43 43 43 43 43 43 43 43 43 43 43 43 43 43 44 45 47 49 51 51 50 53 58 61 62 62 64 65 67 68 69 71 72 72 73 74 74 74 75
73 71 69 67 66 65 64 63 61 59 57 57 56 56 55 53 51 48 45 43 43 43 44 44 45 45 46 45 45 44 43 42 42 42 41 41 41 41 40 40 40 40 40 40 40 40 41 42 42 43 44 46 46 46 45 45 48 52 54 55 56 57 58 60 61 62 63 64 65 66 67 68 68 68
66 64 62 61 61 60 59 58 56 55 54 54 54 53 51 49 46 43 41 40 40 41 41 42 42 43 43 43 42 41 40 40 40 40 39 39 39 39 39 38 38 38 38 38 38 38 39 40 41 41 42 43 42 42 41 42 44 47 48 49 50 51 53 54 55 56 57 58 59 60 61 62 62 62
60 58 58 57 56 55 54 54 53 52 52 52 51 49 47 44 42 39 38 38 38 39 39 39 40 40 40 40 39 39 38 38 38 37 38 37 37 37 37 37 37 37 36 35 35 36 37 38 38 38 38 39 38 38 38 38 40 42 43 44 45 46 47 48 49 50 51 52 53 54 55 56 56 56
56 55 54 54 52 51 51 51 50 50 50 49 47 45 42 40 38 37 36 37 37 38 37 37 38 38 38 37 37 37 36 36 36 35 35 35 35 35 35 35 34 34 34 33 33 33 34 35 35 35 34 34 34 34 34 34 35 37 39 39 40 41 42 43 43 44 45 46 48 49 50 50 50 51
53 52 51 50 49 49 49 48 48 47 46 45 43 41 39 37 36 35 35 36 36 36 36 36 36 35 35 34 34 34 34 34 33 32 32 31 31 32 32 32 31 31 31 30 29 30 30 31 32 32 31 31 31 31 31 31 32 34 36 36 36 37 37 38 39 40 41 41 42 43 45 46 47 47
50 49 48 47 47 47 46 46 45 44 42 40 39 37 36 35 34 34 35 35 35 35 35 33 32 32 32 32 31 31 30 30 29 29 28 28 27 27 28 28 28 28 28 27 27 27 27 28 29 28 28 28 28 28 28 29 30 32 33 33 33 33 33 34 35 36 36 37 38 38 40 41 42 43
47 47 46 45 45 44 44 43 42 40 38 37 36 35 34 33 33 34 34 34 33 33 33 31 29 29 29 28 28 27 27 26 25 25 25 25 25 25 25 25 26 26 25 25 25 25 25 26 26 25 25 25 26 26 26 27 28 29 30 30 30 29 30 31 32 32 33 33 34 34 35 36 37 38
45 44 43 43 42 42 41 40 38 37 36 35 34 34 33 32 32 33 33 32 31 31 30 29 27 26 25 25 24 24 23 23 22 23 23 23 23 23 22 22 23 24 24 24 23 23 23 24 23 23 23 23 23 24 24 25 26 26 27 27 26 26 27 28 29 29 30 30 30 31 31 32 32 33
42 42 41 40 40 40 38 37 35 35 34 33 33 33 32 31 31 32 31 30 29 28 28 26 24 23 23 22 22 21 21 21 21 21 21 21 21 21 22 22 22 23 23 23 22 22 22 22 22 21 21 21 21 21 21 22 23 24 24 24 24 23 24 25 26 26 27 27 27 27 27 28 28 29
Wind_Direction
280 275 271 268 267 266 264 263 263 262 262 262 261 260 259 258 256 253 249 245 244 245 247 248 250 252 253 251 248 247 248 247 245 243 242 241 241 242 243 245 246 246 246 246 246 246 246 245 244 242 243 246 247 247 247 246 246 248 249 249 250 253 256 257 257 258 261 261 259 257 256 255 257 259
282 276 272 268 266 266 265 265 264 263 262 262 262 262 261 261 260 258 255 250 246 244 245 246 248 250 252 251 249 248 248 248 247 246 244 242 241 243 245 248 250 249 247 246 245 245 245 244 245 243 242 243 245 244 244 243 243 244 247 248 248 249 251 252 251 252 254 257 257 258 258 257 257 258
284 276 271 269 266 265 264 264 264 264 264 264 263 263 263 262 262 261 259 257 253 249 246 246 247 249 250 250 249 249 248 248 249 248 247 246 244 245 247 249 252 252 248 246 245 244 243 243 244 244 243 243 244 244 244 244 244 246 249 250 250 249 250 250 249 248 249 250 252 254 256 258 259 259
285 276 270 268 267 264 263 263 263 263 263 264 264 264 263 262 262 261 259 258 256 254 251 249 248 248 248 249 248 248 248 248 248 249 250 249 249 250 251 252 254 253 249 247 246 244 243 243 243 244 244 245 245 246 246 247 247 249 250 251 251 250 250 250 249 249 250 249 249 251 252 253 256 259
285 278 270 266 264 263 263 262 262 262 261 261 262 263 263 263 262 261 260 258 256 255 254 252 250 249 248 248 247 247 248 248 248 249 250 250 251 252 254 255 256 255 251 248 246 245 244 244 244 244 245 246 247 247 247 248 249 250 250 251 250 250 250 250 250 250 251 251 251 251 250 250 250 252
285 280 273 266 262 261 262 263 263 262 261 260 260 261 262 263 263 262 261 260 258 255 254 253 252 251 249 248 247 246 247 248 248 249 249 250 250 251 253 254 256 256 255 252 248 245 244 244 244 245 245 245 246 248 248 248 248 249 250 250 250 250 251 252 252 253 254 254 253 252 252 252 251 249
283 280 276 270 263 260 261 263 264 263 263 261 260 260 260 261 262 263 263 262 261 259 256 254 252 251 251 250 249 248 247 247 248 249 249 249 249 250 251 253 254 255 255 255 253 249 246 244 244 244 245 245 246 246 248 249 248 248 249 250 251 252 253 254 254 254 255 256 255 254 254 254 254 253
280 277 275 272 268 263 262 263 264 264 263 262 260 259 259 259 260 261 262 262 262 261 260 258 256 254 253 252 251 250 250 249 249 249 249 249 249 250 251 252 253 253 254 253 252 252 250 248 246 244 245 245 246 246 247 248 249 249 250 251 252 253 254 255 255 256 256 257 257 256 256 256 257 258
277 274 272 271 269 267 265 264 264 264 263 262 261 259 258 257 258 258 259 260 260 260 260 260 260 258 257 255 253 252 252 252 251 251 250 251 251 251 251 252 252 253 253 253 251 250 249 250 250 249 248 247 246 247 247 248 249 250 250 251 252 253 254 255 255 256 257 258 258 258 258 258 259 259
275 274 272 271 270 269 268 266 265 264 263 261 260 259 258 257 256 257 257 258 258 258 258 259 259 260 259 259 257 256 254 253 253 253 252 252 252 251 251 252 253 253 252 252 252 251 249 248 248 249 250 251 251 250 249 249 249 250 250 251 252 253 253 254 254 255 256 257 258 259 259 260 261 261
274 274 273 273 271 270 269 268 267 266 265 263 260 257 257 256 256 257 258 258 258 258 257 257 257 258 258 259 259 259 258 256 255 254 253 253 253 253 252 252 252 253 253 252 252 251 251 249 248 247 247 249 251 253 254 254 253 253 252 253 253 254 254 254 254 254 255 256 258 259 260 260 261 261
273 273 273 272 271 270 270 271 270 268 267 266 262 259 257 256 256 257 257 258 258 258 258 257 257 256 256 257 257 258 258 258 257 256 255 254 253 254 254 253 253 253 253 253 253 252 251 251 250 249 248 247 248 250 252 254 256 256 256 256 256 257 258 258 257 256 256 256 257 257 258 259 260 260
271 271 272 272 270 269 269 270 271 271 270 269 266 262 259 258 258 258 258 257 257 257 257 257 257 257 256 256 256 256 256 257 257 257 257 256 255 254 254 254 253 253 253 253 253 252 252 252 251 251 251 250 249 248 249 251 253 255 256 257 257 258 258 258 259 260 260 259 259 258 258 258 258 258
272 273 274 272 269 267 267 266 268 270 271 272 270 267 264 262 261 261 260 259 258 258 257 256 256 256 256 256 256 256 256 256 257 257 257 257 257 256 255 254 253 253 253 254 253 252 251 252 253 252 252 252 251 250 250 250 251 252 253 254 256 256 257 256 257 257 258 259 260 261 261 260 259 258
273 273 273 272 271 269 268 267 267 268 269 270 270 270 268 266 264 263 263 262 261 260 259 258 257 256 256 256 256 256 257 257 257 257 258 258 258 258 257 256 255 252 252 253 255 254 252 251 252 252 252 252 252 252 251 251 251 252 252 253 254 254 255 256 256 256 256 256 258 259 260 261 261 260
273 274 274 273 273 272 272 272 272 272 271 269 268 268 268 267 267 266 265 264 263 262 261 260 259 259 258 257 257 256 256 257 257 257 257 258 258 259 259 258 258 256 253 252 254 255 255 253 252 253 252 251 252 252 252 253 253 253 253 253 254 254 254 255 255 256 256 256 257 257 258 258 259 260
275 276 276 275 275 275 276 277 278 278 277 275 272 270 267 267 267 267 267 266 265 263 262 261 261 260 260 259 258 258 257 257 257 257 257 257 257 257 258 258 259 258 257 255 254 255 256 254 253 254 254 252 252 252 252 252 253 254 254 254 254 254 254 254 255 255 256 257 257 257 258 258 258 259
276 277 277 277 277 278 279 280 281 282 282 281 279 277 274 271 269 267 267 267 267 266 265 263 262 261 261 260 259 259 258 258 258 258 258 257 257 257 257 258 258 258 258 257 256 256 257 256 254 254 255 254 253 252 252 252 252 253 253 254 255 255 255 255 255 256 256 256 257 257 258 258 258 259
277 278 278 278 278 278 279 280 280 280 280 280 281 281 280 278 276 273 271 269 268 267 267 266 264 263 262 261 261 260 260 259 258 258 258 258 258 258 258 258 258 258 258 257 256 256 257 257 256 255 255 255 255 254 253 253 252 252 252 253 254 255 255 256 256 256 256 256 257 257 257 258 258 259
278 278 278 278 278 278 279 279 279 279 279 279 279 279 279 279 279 278 277 274 271 269 267 266 265 264 264 263 263 262 262 261 260 259 259 259 259 259 258 258 258 258 258 257 257 256 257 258 257 256 256 256 255 255 254 254 253 253 253 253 253 254 254 255 255 256 256 256 257 257 258 258 258 259
277 278 278 278 278 278 278 279 279 278 278 278 279 278 278 278 278 277 277 277 276 274 271 269 266 264 263 263 263 263 263 263 262 262 261 261 260 259 259 259 259 259 259 258 257 256 256 257 257 257 257 256 256 255 255 254 254 254 254 254 254 254 255 255 255 256 256 256 256 257 257 258 258 258
276 276 277 276 276 277 277 277 277 277 277 277 278 278 278 277 277 276 275 275 274 274 274 273 271 268 265 263 262 261 261 262 262 263 263 263 262 262 261 260 260 260 260 259 258 256 256 256 256 257 257 257 257 257 256 256 255 254 254 254 255 255 256 256 256 256 256 256 256 257 257 257 257 258
274 275 275 275 275 276 276 276 277 277 277 277 277 278 278 278 278 277 276 275 274 273 272 272 272 271 270 268 265 263 261 261 261 261 261 262 263 263 262 262 261 261 261 261 260 258 257 257 256 256 256 257 258 258 258 258 258 257 256 255 255 255 255 256 256 256 257 257 257 257 257 258 258 258
271 272 273 274 275 276 276 277 277 277 278 278 279 279 280 279 279 279 278 277 276 274 273 272 271 271 271 271 269 267 265 262 261 260 259 259 260 260 261 262 262 261 262 262 262 261 259 258 258 257 256 256 256 258 259 259 259 259 259 258 257 256 256 256 256 256 256 257 257 257 257 258 258 258
270 271 272 274 275 276 277 277 278 279 279 280 280 280 280 280 280 280 280 279 278 277 276 275 273 272 271 270 269 269 268 266 264 262 260 258 258 258 258 259 260 260 261 261 262 262 262 261 260 259 258 257 256 257 258 259 259 259 260 260 259 258 258 257 257 256 256 255 256 256 257 257 258 258
269 271 273 274 276 277 278 278 279 279 280 280 281 281 281 282 282 281 281 280 279 279 278 277 275 274 272 271 270 269 269 268 267 266 264 262 260 258 257 256 257 257 258 259 260 261 261 262 262 262 261 260 258 258 258 259 260 260 260 260 259 259 259 258 258 258 257 256 255 255 255 256 256 257
270 271 273 275 276 277 277 278 278 279 280 281 281 282 282 282 282 282 282 282 281 280 279 277 276 275 274 273 272 271 270 269 269 268 267 265 264 262 260 258 257 256 256 257 258 259 259 260 261 261 262 261 261 260 259 259 260 260 261 260 260 260 259 259 258 258 258 258 257 256 256 255 256 256
269 271 272 274 275 276 277 277 278 279 280 281 282 282 282 283 283 283 283 282 281 280 279 278 276 275 275 274 274 273 273 272 271 270 269 268 266 265 263 262 260 258 257 257 257 258 258 258 259 260 260 261 261 261 260 260 260 261 261 261 261 261 260 259 259 259 259 258 258 257 257 256 256 256
270 271 272 273 275 276 277 278 279 280 281 281 281 282 282 283 283 283 282 281 281 280 279 278 277 277 276 276 275 275 274 274 273 272 271 270 269 267 266 264 263 261 259 258 257 257 258 258 258 259 260 260 260 260 260 260 260 260 261 262 262 262 261 260 260 259 259 259 259 258 258 257 257 257
271 272 273 274 276 277 278 279 279 280 280 281 281 282 282 283 282 282 281 280 280 280 279 279 278 278 277 277 277 276 276 275 275 274 273 272 270 269 267 266 265 264 262 260 259 259 258 258 259 259 260 260 260 260 260 259 259 259 259 259 260 261 261 261 260 259 259 259 259 259 259 259 259 259
271 272 273 274 275 276 277 277 278 279 279 280 281 282 282 282 281 280 280 280 280 280 280 279 279 278 278 277 277 277 276 276 275 275 274 273 272 271 270 269 268 267 265 264 262 261 260 259 259 259 259 259 259 258 258 258 257 257 257 257 258 259 260 261 261 260 260 259 259 259 259 260 260 261
270 270 271 272 273 274 275 275 276 278 279 280 281 281 281 280 280 280 281 281 281 281 280 280 279 278 277 277 276 275 274 274 275 275 275 275 275 274 274 273 271 269 268 266 265 263 261 260 260 259 259 259 259 258 258 258 258 257 258 258 258 259 259 260 261 261 260 260 260 259 260 260 260 260
269 270 271 271 272 272 273 274 276 277 278 279 279 279 279 279 280 281 281 281 281 281 281 280 279 278 277 276 274 274 274 274 275 275 276 277 277 276 275 274 273 272 271 270 268 266 264 262 261 260 259 259 258 258 258 258 258 258 258 259 259 259 258 258 259 259 260 260 259 259 259 259 259 259
270 270 271 271 271 271 272 274 275 276 276 277 277 278 278 279 280 280 281 281 281 281 281 280 278 277 276 275 275 275 275 275 276 277 278 277 277 276 275 274 273 273 272 271 271 269 267 265 262 260 259 258 257 256 256 256 257 258 258 257 258 258 258 258 258 259 260 260 260 259 259 259 259 259
270 270 270 270 271 272 273 273 273 274 274 275 276 277 278 279 279 280 280 281 281 281 280 278 277 276 276 276 276 277 277 278 279 280 279 278 276 276 275 274 274 273 272 271 270 270 269 267 265 262 260 258 257 256 255 255 257 257 257 257 257 258 259 259 260 260 260 261 261 261 260 260 260 259
269 269 270 271 272 272 272 272 272 273 274 275 275 276 277 278 279 280 280 281 280 279 277 276 276 276 276 276 277 278 280 281 282 281 280 279 279 278 276 275 275 274 273 272 272 271 270 268 266 264 261 259 258 257 257 256 257 257 258 258 259 259 260 260 261 261 261 261 262 262 262 262 261 261
268 269 270 271 271 271 270 271 272 273 274 274 275 277 278 278 279 279 280 279 278 276 275 275 276 277 277 278 279 281 282 282 282 282 282 281 280 279 277 276 276 275 274 274 273 272 270 269 267 265 264 262 262 261 261 259 259 259 259 260 260 260 260 261 261 261 261 261 262 262 262 262 262 262
267 268 269 269 269 269 270 270 271 273 273 274 275 277 278 279 280 279 278 277 275 274 274 275 276 277 278 279 281 282 282 282 281 281 281 280 279 279 279 278 277 276 275 274 273 272 271 270 268 267 266 265 265 264 263 261 261 261 261 260 260 260 260 260 260 260 261 261 260 260 260 261 261 261
267 267 267 267 267 268 269 270 271 272 273 274 275 277 278 279 279 278 277 276 274 274 275 275 276 277 278 280 281 281 281 280 280 279 279 279 280 280 279 279 278 277 276 275 274 273 272 271 269 268 267 267 267 266 264 263 262 262 262 262 261 261 261 261 261 261 260 260 260 260 260 260 260 260
265 265 265 266 267 267 268 269 270 271 273 274 275 277 278 278 277 276 276 275 275 275 275 276 277 278 279 280 280 280 279 279 279 279 279 280 280 279 279 278 278 277 276 276 274 273 272 271 271 270 269 268 268 267 265 263 263 263 263 263 262 262 262 263 263 262 262 261 261 261 261 260 260 259
263 263 264 265 266 266 267 268 269 271 272 273 275 276 276 276 276 276 276 276 276 276 276 276 277 279 279 279 278 278 278 278 279 279 279 278 278 278 278 278 278 277 276 275 274 272 271 271 271 271 271 270 269 268 266 265 263 263 262 263 263 263 264 264 264 264 263 263 262 261 261 260 260 259
261 262 263 264 265 266 267 268 269 270 271 273 273 274 274 274 276 277 277 277 277 278 277 277 278 278 278 277 277 277 277 277 278 278 278 278 277 277 277 277 277 276 275 274 272 270 269 269 270 271 271 270 270 269 267 265 264 263 264 264 265 265 265 264 264 265 265 264 263 262 261 260 259 259
260 261 262 263 264 265 266 266 268 269 270 271 272 272 272 274 276 277 277 277 278 278 279 279 279 278 277 276 276 276 276 277 278 278 278 278 277 277 276 276 276 276 274 273 272 270 270 269 270 270 270 270 269 269 268 266 265 265 266 266 267 267 266 265 265 265 265 265 264 263 261 260 259 259
259 260 261 262 263 264 265 266 267 268 269 270 271 272 273 275 277 277 277 278 278 279 279 279 278 278 277 277 277 277 278 279 279 279 280 280 281 280 279 278 277 277 277 276 275 274 273 273 273 272 271 269 269 269 268 268 267 267 267 268 268 268 267 267 266 266 265 264 264 262 261 260 259 259
257 259 260 261 262 263 264 266 267 267 268 269 271 273 274 276 277 277 278 278 279 279 279 279 278 278 277 277 278 279 280 280 280 280 281 281 281 282 281 280 279 279 279 279 279 278 277 277 277 277 276 274 273 271 270 269 269 269 269 269 269 268 267 266 266 265 265 265 264 263 262 261 260 260